Regional Weather Roundup
Issued by NWS

Home | Current Version | Previous Version | Graphics & Text | Print | Product List | Glossary On
Versions: 1 2 3 4 5 6 7 8 9 10 11 12 13 14 15 16 17 18 19 20 21 22 23 24 25 26 27 28 29 30 31 32 33 34 35 36 37 38 39 40 41 42 43 44 45 46 47 48 49 50
000
ASUS43 KLSX 202259
RWRMO

WEATHER SUMMARY FOR MISSOURI
NATIONAL WEATHER SERVICE SPRINGFIELD MO
600 PM CDT WED AUG 20 2014

NOTE: "FAIR" INDICATES FEW OR NO CLOUDS BELOW 12,000 FEET WITH NO
       SIGNIFICANT WEATHER AND/OR OBSTRUCTIONS TO VISIBILITY.
       CURRENT SKY AND/OR WEATHER CONDITIONS ARE NOT AVAILABLE FOR
       CHILLICOTHE AND FARMINGTON.

MOZ001>031-035>038-043-044-053-054-210000-
...NORTHERN AND WESTERN MISSOURI...

CITY           SKY/WX    TMP DP  RH WIND       PRES   REMARKS
KANSAS CTY INT MOSUNNY   91  73  55 S13       29.84S HX  99
KANSAS C DTWN  MOSUNNY   92  70  48 S10       29.82F HX  97
LEE`S SUMMIT   SUNNY     90  71  53 S12G22    29.86S HX  96
ST JOSEPH      PTSUNNY   91  75  59 SE9       29.82F HX 101
KIRKSVILLE     SUNNY     87  74  64 S9        29.90F HX  95

$$
MOZ066>068-077>081-088>096-101>105-210000-
...SOUTHWEST MISSOURI...

CITY           SKY/WX    TMP DP  RH WIND       PRES   REMARKS
SPRINGFIELD    PTSUNNY   92  62  36 SW21      29.94F HX  92
JOPLIN         SUNNY     91  65  41 S18       29.91F HX  93

$$
MOZ032>034-039>042-045>050-055>058-069>072-210000-
...CENTRAL MISSOURI...

CITY           SKY/WX    TMP DP  RH WIND       PRES   REMARKS
COLUMBIA       MOSUNNY   89  72  56 S6        29.89F HX  96
JEFFERSON CITY PTSUNNY   88  72  58 S8        29.88S THUNDER HX  94
ROLLA          TSTM      75  69  81 N8        29.92R
SEDALIA        MOSUNNY   91  73  55 S10G18    29.89F HX  99
OSAGE BEACH    PTSUNNY   84  66  54 S6        29.91F

$$
MOZ051-052-059>065-210000-
...EAST CENTRAL MISSOURI...

CITY           SKY/WX    TMP DP  RH WIND       PRES   REMARKS
ST LOUIS INTL  MOSUNNY   87  73  62 SE12      29.93F HX  94
SPIRIT OF STL  MOSUNNY   87  75  67 SE9       29.90S HX  96
ST CHARLES     SUNNY     84  74  71 E9        29.90F HX  91

$$
MOZ072>076-082>087-097>100-106>115-210000-
...SOUTH CENTRAL AND SOUTHEAST MISSOURI...

CITY           SKY/WX    TMP DP  RH WIND       PRES   REMARKS
CAPE GIRARDEAU PTSUNNY   91  76  61 S6        29.91F HX 103
FARMINGTON     PTSUNNY   84  72  65 E9        29.96S
POPLAR BLUFF   MOSUNNY   91  69  48 S7        29.91F HX  96
WEST PLAINS    MOSUNNY   92  65  40 SW9       29.97F HX  94

$$


USA.gov is the U.S. government's official web portal to all federal, state and local government web resources and services.